Year,Month,Day,Hour,Minute,Value (Times are PST for temperature in C)
2009,04,06,00,00,6.90
2009,04,06,00,01,6.90
2009,04,06,00,02,6.90
2009,04,06,00,03,6.90
2009,04,06,00,04,7.00
2009,04,06,00,05,7.00
2009,04,06,00,06,7.00
2009,04,06,00,07,7.10
2009,04,06,00,08,7.10
2009,04,06,00,09,7.10
2009,04,06,00,10,7.10
2009,04,06,00,11,7.10
2009,04,06,00,12,7.10
2009,04,06,00,13,7.10
2009,04,06,00,14,7.00
2009,04,06,00,15,7.00
2009,04,06,00,16,6.90
2009,04,06,00,17,6.90
2009,04,06,00,18,6.90
2009,04,06,00,19,6.90
2009,04,06,00,20,6.90
2009,04,06,00,21,6.90
2009,04,06,00,22,6.90
2009,04,06,00,23,6.90
2009,04,06,00,24,6.80
2009,04,06,00,25,6.80
2009,04,06,00,26,6.80
2009,04,06,00,27,6.90
2009,04,06,00,28,6.90
2009,04,06,00,29,6.90
2009,04,06,00,30,6.90
2009,04,06,00,31,6.90
2009,04,06,00,32,6.90
2009,04,06,00,33,6.90
2009,04,06,00,34,6.90
2009,04,06,00,35,6.80
2009,04,06,00,36,6.80
2009,04,06,00,37,6.80
2009,04,06,00,38,6.80
2009,04,06,00,39,6.80
2009,04,06,00,40,6.80
2009,04,06,00,41,6.80
2009,04,06,00,42,6.70
2009,04,06,00,43,6.70
2009,04,06,00,44,6.70
2009,04,06,00,45,6.60
2009,04,06,00,46,6.60
2009,04,06,00,47,6.60
2009,04,06,00,48,6.50
2009,04,06,00,49,6.50
2009,04,06,00,50,6.50
2009,04,06,00,51,6.50
2009,04,06,00,52,6.50
2009,04,06,00,53,6.50
2009,04,06,00,54,6.50
2009,04,06,00,55,6.50
2009,04,06,00,56,6.40
2009,04,06,00,57,6.40
2009,04,06,00,58,6.40
2009,04,06,00,59,6.30
2009,04,06,01,00,6.30
2009,04,06,01,01,6.20
2009,04,06,01,02,6.20
2009,04,06,01,03,6.10
2009,04,06,01,04,6.10
2009,04,06,01,05,6.10
2009,04,06,01,06,6.10
2009,04,06,01,07,6.10
2009,04,06,01,08,6.10
2009,04,06,01,09,6.10
2009,04,06,01,10,6.10
2009,04,06,01,11,6.10
2009,04,06,01,12,6.20
2009,04,06,01,13,6.20
2009,04,06,01,14,6.20
2009,04,06,01,15,6.20
2009,04,06,01,16,6.20
2009,04,06,01,17,6.30
2009,04,06,01,18,6.30
2009,04,06,01,19,6.40
2009,04,06,01,20,6.40
2009,04,06,01,21,6.50
2009,04,06,01,22,6.50
2009,04,06,01,23,6.50
2009,04,06,01,24,6.60
2009,04,06,01,25,6.60
2009,04,06,01,26,6.60
2009,04,06,01,27,6.60
2009,04,06,01,28,6.60
2009,04,06,01,29,6.60
2009,04,06,01,30,6.60
2009,04,06,01,31,6.60
2009,04,06,01,32,6.60
2009,04,06,01,33,6.60
2009,04,06,01,34,6.60
2009,04,06,01,35,6.60
2009,04,06,01,36,6.60
2009,04,06,01,37,6.60
2009,04,06,01,38,6.60
2009,04,06,01,39,6.60
2009,04,06,01,40,6.60
2009,04,06,01,41,6.60
2009,04,06,01,42,6.60
2009,04,06,01,43,6.60
2009,04,06,01,44,6.60
2009,04,06,01,45,6.60
2009,04,06,01,46,6.60
2009,04,06,01,47,6.60
2009,04,06,01,48,6.60
2009,04,06,01,49,6.50
2009,04,06,01,50,6.50
2009,04,06,01,51,6.50
2009,04,06,01,52,6.50
2009,04,06,01,53,6.40
2009,04,06,01,54,6.40
2009,04,06,01,55,6.40
2009,04,06,01,56,6.30
2009,04,06,01,57,6.30
2009,04,06,01,58,6.30
2009,04,06,01,59,6.30
2009,04,06,02,00,6.20
2009,04,06,02,01,6.20
2009,04,06,02,02,6.10
2009,04,06,02,03,6.10
2009,04,06,02,04,6.10
2009,04,06,02,05,6.00
2009,04,06,02,06,6.00
2009,04,06,02,07,5.90
2009,04,06,02,08,5.90
2009,04,06,02,09,5.90
2009,04,06,02,10,5.90
2009,04,06,02,11,5.90
2009,04,06,02,12,5.90
2009,04,06,02,13,5.90
2009,04,06,02,14,5.90
2009,04,06,02,15,5.90
2009,04,06,02,16,5.90
2009,04,06,02,17,5.90
2009,04,06,02,18,5.80
2009,04,06,02,19,5.80
2009,04,06,02,20,5.80
2009,04,06,02,21,5.80
2009,04,06,02,22,5.80
2009,04,06,02,23,5.80
2009,04,06,02,24,5.80
2009,04,06,02,25,5.80
2009,04,06,02,26,5.70
2009,04,06,02,27,5.70
2009,04,06,02,28,5.70
2009,04,06,02,29,5.60
2009,04,06,02,30,5.60
2009,04,06,02,31,5.60
2009,04,06,02,32,5.60
2009,04,06,02,33,5.60
2009,04,06,02,34,5.60
2009,04,06,02,35,5.60
2009,04,06,02,36,5.70
2009,04,06,02,37,5.70
2009,04,06,02,38,5.70
2009,04,06,02,39,5.70
2009,04,06,02,40,5.70
2009,04,06,02,41,5.70
2009,04,06,02,42,5.80
2009,04,06,02,43,5.80
2009,04,06,02,44,5.80
2009,04,06,02,45,5.80
2009,04,06,02,46,5.80
2009,04,06,02,47,5.80
2009,04,06,02,48,5.80
2009,04,06,02,49,5.80
2009,04,06,02,50,5.80
2009,04,06,02,51,5.90
2009,04,06,02,52,5.90
2009,04,06,02,53,5.90
2009,04,06,02,54,5.90
2009,04,06,02,55,5.80
2009,04,06,02,56,5.80
2009,04,06,02,57,5.80
2009,04,06,02,58,5.80
2009,04,06,02,59,5.80
2009,04,06,03,00,5.70
2009,04,06,03,01,5.70
2009,04,06,03,02,5.70
2009,04,06,03,03,5.70
2009,04,06,03,04,5.60
2009,04,06,03,05,5.60
2009,04,06,03,06,5.60
2009,04,06,03,07,5.60
2009,04,06,03,08,5.60
2009,04,06,03,09,5.60
2009,04,06,03,10,5.60
2009,04,06,03,11,5.60
2009,04,06,03,12,5.60
2009,04,06,03,13,5.60
2009,04,06,03,14,5.60
2009,04,06,03,15,5.60
2009,04,06,03,16,5.70
2009,04,06,03,17,5.70
2009,04,06,03,18,5.60
2009,04,06,03,19,5.60
2009,04,06,03,20,5.60
2009,04,06,03,21,5.60
2009,04,06,03,22,5.60
2009,04,06,03,23,5.50
2009,04,06,03,24,5.50
2009,04,06,03,25,5.40
2009,04,06,03,26,5.40
2009,04,06,03,27,5.40
2009,04,06,03,28,5.40
2009,04,06,03,29,5.40
2009,04,06,03,30,5.30
2009,04,06,03,31,5.30
2009,04,06,03,32,5.30
2009,04,06,03,33,5.30
2009,04,06,03,34,5.30
2009,04,06,03,35,5.20
2009,04,06,03,36,5.20
2009,04,06,03,37,5.20
2009,04,06,03,38,5.20
2009,04,06,03,39,5.10
2009,04,06,03,40,5.10
2009,04,06,03,41,5.10
2009,04,06,03,42,5.10
2009,04,06,03,43,5.10
2009,04,06,03,44,5.00
2009,04,06,03,45,5.00
2009,04,06,03,46,5.00
2009,04,06,03,47,4.90
2009,04,06,03,48,4.90
2009,04,06,03,49,4.90
2009,04,06,03,50,4.90
2009,04,06,03,51,4.90
2009,04,06,03,52,4.90
2009,04,06,03,53,4.90
2009,04,06,03,54,4.90
2009,04,06,03,55,4.90
2009,04,06,03,56,4.90
2009,04,06,03,57,4.90
2009,04,06,03,58,4.90
2009,04,06,03,59,4.90
2009,04,06,04,00,5.00
2009,04,06,04,01,5.00
2009,04,06,04,02,5.00
2009,04,06,04,03,5.10
2009,04,06,04,04,5.10
2009,04,06,04,05,5.10
2009,04,06,04,06,5.10
2009,04,06,04,07,5.10
2009,04,06,04,08,5.10
2009,04,06,04,09,5.10
2009,04,06,04,10,5.10
2009,04,06,04,11,5.10
2009,04,06,04,12,5.10
2009,04,06,04,13,5.10
2009,04,06,04,14,5.10
2009,04,06,04,15,5.10
2009,04,06,04,16,5.10
2009,04,06,04,17,5.10
2009,04,06,04,18,5.10
2009,04,06,04,19,5.10
2009,04,06,04,20,5.10
2009,04,06,04,21,5.10
2009,04,06,04,22,5.00
2009,04,06,04,23,5.00
2009,04,06,04,24,5.00
2009,04,06,04,25,5.00
2009,04,06,04,26,5.00
2009,04,06,04,27,5.00
2009,04,06,04,28,4.90
2009,04,06,04,29,4.90
2009,04,06,04,30,4.90
2009,04,06,04,31,4.90
2009,04,06,04,32,4.90
2009,04,06,04,33,5.00
2009,04,06,04,34,5.00
2009,04,06,04,35,5.00
2009,04,06,04,36,5.00
2009,04,06,04,37,5.10
2009,04,06,04,38,5.10
2009,04,06,04,39,5.10
2009,04,06,04,40,5.10
2009,04,06,04,41,5.10
2009,04,06,04,42,5.20
2009,04,06,04,43,5.20
2009,04,06,04,44,5.20
2009,04,06,04,45,5.10
2009,04,06,04,46,5.10
2009,04,06,04,47,5.10
2009,04,06,04,48,5.10
2009,04,06,04,49,5.10
2009,04,06,04,50,5.10
2009,04,06,04,51,5.10
2009,04,06,04,52,5.10
2009,04,06,04,53,5.00
2009,04,06,04,54,5.00
2009,04,06,04,55,5.00
2009,04,06,04,56,5.00
2009,04,06,04,57,5.00
2009,04,06,04,58,5.00
2009,04,06,04,59,5.00
2009,04,06,05,00,5.00
2009,04,06,05,01,5.10
2009,04,06,05,02,5.10
2009,04,06,05,03,5.10
2009,04,06,05,04,5.10
2009,04,06,05,05,5.10
2009,04,06,05,06,5.10
2009,04,06,05,07,5.10
2009,04,06,05,08,5.10
2009,04,06,05,09,5.10
2009,04,06,05,10,5.10
2009,04,06,05,11,5.10
2009,04,06,05,12,5.10
2009,04,06,05,13,5.10
2009,04,06,05,14,5.10
2009,04,06,05,15,5.10
2009,04,06,05,16,5.10
2009,04,06,05,17,5.10
2009,04,06,05,18,5.10
2009,04,06,05,19,5.10
2009,04,06,05,20,5.00
2009,04,06,05,21,5.00
2009,04,06,05,22,5.00
2009,04,06,05,23,4.90
2009,04,06,05,24,4.90
2009,04,06,05,25,4.90
2009,04,06,05,26,4.90
2009,04,06,05,27,4.90
2009,04,06,05,28,4.90
2009,04,06,05,29,4.90
2009,04,06,05,30,4.90
2009,04,06,05,31,4.90
2009,04,06,05,32,4.90
2009,04,06,05,33,4.90
2009,04,06,05,34,4.90
2009,04,06,05,35,4.90
2009,04,06,05,36,4.90
2009,04,06,05,37,4.90
2009,04,06,05,38,4.90
2009,04,06,05,39,4.80
2009,04,06,05,40,4.80
2009,04,06,05,41,4.80
2009,04,06,05,42,4.80
2009,04,06,05,43,4.80
2009,04,06,05,44,4.80
2009,04,06,05,45,4.80
2009,04,06,05,46,4.80
2009,04,06,05,47,4.80
2009,04,06,05,48,4.80
2009,04,06,05,49,4.80
2009,04,06,05,50,4.80
2009,04,06,05,51,4.80
2009,04,06,05,52,4.80
2009,04,06,05,53,4.80
2009,04,06,05,54,4.80
2009,04,06,05,55,4.80
2009,04,06,05,56,4.80
2009,04,06,05,57,4.80
2009,04,06,05,58,4.80
2009,04,06,05,59,4.80
2009,04,06,06,00,4.80
2009,04,06,06,01,4.80
2009,04,06,06,02,4.80
2009,04,06,06,03,4.80
2009,04,06,06,04,4.80
2009,04,06,06,05,4.80
2009,04,06,06,06,4.80
2009,04,06,06,07,4.80
2009,04,06,06,08,4.80
2009,04,06,06,09,4.80
2009,04,06,06,10,4.80
2009,04,06,06,11,4.80
2009,04,06,06,12,4.90
2009,04,06,06,13,4.90
2009,04,06,06,14,4.80
2009,04,06,06,15,4.80
2009,04,06,06,16,4.80
2009,04,06,06,17,4.80
2009,04,06,06,18,4.80
2009,04,06,06,19,4.80
2009,04,06,06,20,4.80
2009,04,06,06,21,4.80
2009,04,06,06,22,4.80
2009,04,06,06,23,4.80
2009,04,06,06,24,4.80
2009,04,06,06,25,4.80
2009,04,06,06,26,4.80
2009,04,06,06,27,4.80
2009,04,06,06,28,4.80
2009,04,06,06,29,4.80
2009,04,06,06,30,4.80
2009,04,06,06,31,4.80
2009,04,06,06,32,4.80
2009,04,06,06,33,4.80
2009,04,06,06,34,4.80
2009,04,06,06,35,4.90
2009,04,06,06,36,4.90
2009,04,06,06,37,4.90
2009,04,06,06,38,4.90
2009,04,06,06,39,4.90
2009,04,06,06,40,5.00
2009,04,06,06,41,5.00
2009,04,06,06,42,4.90
2009,04,06,06,43,4.90
2009,04,06,06,44,4.90
2009,04,06,06,45,4.90
2009,04,06,06,46,4.90
2009,04,06,06,47,4.80
2009,04,06,06,48,4.80
2009,04,06,06,49,4.80
2009,04,06,06,50,4.80
2009,04,06,06,51,4.80
2009,04,06,06,52,4.80
2009,04,06,06,53,4.80
2009,04,06,06,54,4.80
2009,04,06,06,55,4.80
2009,04,06,06,56,4.80
2009,04,06,06,57,4.80
2009,04,06,06,58,4.80
2009,04,06,06,59,4.80
2009,04,06,07,00,4.80
2009,04,06,07,01,4.80
2009,04,06,07,02,4.80
2009,04,06,07,03,4.80
2009,04,06,07,04,4.80
2009,04,06,07,05,4.80
2009,04,06,07,06,4.80
2009,04,06,07,07,4.80
2009,04,06,07,08,4.80
2009,04,06,07,09,4.80
2009,04,06,07,10,4.80
2009,04,06,07,11,4.80
2009,04,06,07,12,4.80
2009,04,06,07,13,4.80
2009,04,06,07,14,4.90
2009,04,06,07,15,4.90
2009,04,06,07,16,4.90
2009,04,06,07,17,4.90
2009,04,06,07,18,4.90
2009,04,06,07,19,4.90
2009,04,06,07,20,4.90
2009,04,06,07,21,4.90
2009,04,06,07,22,4.90
2009,04,06,07,23,4.90
2009,04,06,07,24,4.90
2009,04,06,07,25,4.90
2009,04,06,07,26,4.90
2009,04,06,07,27,4.90
2009,04,06,07,28,5.00
2009,04,06,07,29,5.00
2009,04,06,07,30,5.00
2009,04,06,07,31,5.10
2009,04,06,07,32,5.10
2009,04,06,07,33,5.10
2009,04,06,07,34,5.10
2009,04,06,07,35,5.10
2009,04,06,07,36,5.10
2009,04,06,07,37,5.20
2009,04,06,07,38,5.20
2009,04,06,07,39,5.20
2009,04,06,07,40,5.20
2009,04,06,07,41,5.20
2009,04,06,07,42,5.20
2009,04,06,07,43,5.20
2009,04,06,07,44,5.20
2009,04,06,07,45,5.20
2009,04,06,07,46,5.30
2009,04,06,07,47,5.30
2009,04,06,07,48,5.30
2009,04,06,07,49,5.30
2009,04,06,07,50,5.30
2009,04,06,07,51,5.30
2009,04,06,07,52,5.30
2009,04,06,07,53,5.40
2009,04,06,07,54,5.40
2009,04,06,07,55,5.40
2009,04,06,07,56,5.50
2009,04,06,07,57,5.50
2009,04,06,07,58,5.50
2009,04,06,07,59,5.50
2009,04,06,08,00,5.60
2009,04,06,08,01,5.60
2009,04,06,08,02,5.60
2009,04,06,08,03,5.60
2009,04,06,08,04,5.60
2009,04,06,08,05,5.60
2009,04,06,08,06,5.60
2009,04,06,08,07,5.70
2009,04,06,08,08,5.70
2009,04,06,08,09,5.70
2009,04,06,08,10,5.70
2009,04,06,08,11,5.70
2009,04,06,08,12,5.80
2009,04,06,08,13,5.80
2009,04,06,08,14,5.80
2009,04,06,08,15,5.90
2009,04,06,08,16,5.90
2009,04,06,08,17,5.90
2009,04,06,08,18,5.90
2009,04,06,08,19,5.90
2009,04,06,08,20,5.90
2009,04,06,08,21,5.90
2009,04,06,08,22,5.90
2009,04,06,08,23,5.90
2009,04,06,08,24,5.90
2009,04,06,08,25,6.00
2009,04,06,08,26,6.00
2009,04,06,08,27,6.00
2009,04,06,08,28,6.10
2009,04,06,08,29,6.10
2009,04,06,08,30,6.10
2009,04,06,08,31,6.10
2009,04,06,08,32,6.10
2009,04,06,08,33,6.20
2009,04,06,08,34,6.20
2009,04,06,08,35,6.20
2009,04,06,08,36,6.40
2009,04,06,08,37,6.50
2009,04,06,08,38,6.70
2009,04,06,08,39,6.80
2009,04,06,08,40,6.90
2009,04,06,08,41,7.10
2009,04,06,08,42,7.20
2009,04,06,08,43,7.30
2009,04,06,08,44,7.40
2009,04,06,08,45,7.50
2009,04,06,08,46,7.70
2009,04,06,08,47,7.80
2009,04,06,08,48,8.00
2009,04,06,08,49,8.20
2009,04,06,08,50,8.30
2009,04,06,08,51,8.50
2009,04,06,08,52,8.70
2009,04,06,08,53,8.80
2009,04,06,08,54,8.90
2009,04,06,08,55,9.00
2009,04,06,08,56,9.00
2009,04,06,08,57,9.10
2009,04,06,08,58,9.10
2009,04,06,08,59,9.10
2009,04,06,09,00,9.20
2009,04,06,09,01,9.20
2009,04,06,09,02,9.20
2009,04,06,09,03,9.20
2009,04,06,09,04,9.30
2009,04,06,09,05,9.30
2009,04,06,09,06,9.40
2009,04,06,09,07,9.50
2009,04,06,09,08,9.60
2009,04,06,09,09,9.70
2009,04,06,09,10,9.80
2009,04,06,09,11,9.90
2009,04,06,09,12,10.00
2009,04,06,09,13,10.10
2009,04,06,09,14,10.20
2009,04,06,09,15,10.20
2009,04,06,09,16,10.30
2009,04,06,09,17,10.30
2009,04,06,09,18,10.30
2009,04,06,09,19,10.30
2009,04,06,09,20,10.30
2009,04,06,09,21,10.30
2009,04,06,09,22,10.30
2009,04,06,09,23,10.30
2009,04,06,09,24,10.30
2009,04,06,09,25,10.40
2009,04,06,09,26,10.40
2009,04,06,09,27,10.40
2009,04,06,09,28,10.40
2009,04,06,09,29,10.50
2009,04,06,09,30,10.60
2009,04,06,09,31,10.60
2009,04,06,09,32,10.70
2009,04,06,09,33,10.70
2009,04,06,09,34,10.80
2009,04,06,09,35,10.80
2009,04,06,09,36,10.80
2009,04,06,09,37,10.80
2009,04,06,09,38,10.90
2009,04,06,09,39,10.90
2009,04,06,09,40,10.80
2009,04,06,09,41,10.80
2009,04,06,09,42,10.80
2009,04,06,09,43,10.70
2009,04,06,09,44,10.70
2009,04,06,09,45,10.60
2009,04,06,09,46,10.50
2009,04,06,09,47,10.40
2009,04,06,09,48,10.40
2009,04,06,09,49,10.40
2009,04,06,09,50,10.30
2009,04,06,09,51,10.20
2009,04,06,09,52,10.10
2009,04,06,09,53,10.00
2009,04,06,09,54,10.00
2009,04,06,09,55,9.90
2009,04,06,09,56,9.90
2009,04,06,09,57,9.90
2009,04,06,09,58,10.00
2009,04,06,09,59,10.10
2009,04,06,10,00,10.10
2009,04,06,10,01,10.10
2009,04,06,10,02,10.20
2009,04,06,10,03,10.30
2009,04,06,10,04,10.50
2009,04,06,10,05,10.60
2009,04,06,10,06,10.70
2009,04,06,10,07,10.80
2009,04,06,10,08,10.80
2009,04,06,10,09,10.80
2009,04,06,10,10,10.90
2009,04,06,10,11,11.00
2009,04,06,10,12,11.00
2009,04,06,10,13,11.00
2009,04,06,10,14,11.10
2009,04,06,10,15,11.10
2009,04,06,10,16,11.30
2009,04,06,10,17,11.40
2009,04,06,10,18,11.50
2009,04,06,10,19,11.60
2009,04,06,10,20,11.70
2009,04,06,10,21,11.70
2009,04,06,10,22,11.70
2009,04,06,10,23,11.60
2009,04,06,10,24,11.60
2009,04,06,10,25,11.60
2009,04,06,10,26,11.70
2009,04,06,10,27,11.80
2009,04,06,10,28,11.80
2009,04,06,10,29,11.70
2009,04,06,10,30,11.70
2009,04,06,10,31,11.70
2009,04,06,10,32,11.70
2009,04,06,10,33,11.60
2009,04,06,10,34,11.70
2009,04,06,10,35,11.80
2009,04,06,10,36,11.90
2009,04,06,10,37,12.00
2009,04,06,10,38,12.10
2009,04,06,10,39,12.20
2009,04,06,10,40,12.40
2009,04,06,10,41,12.40
2009,04,06,10,42,12.30
2009,04,06,10,43,12.30
2009,04,06,10,44,12.20
2009,04,06,10,45,12.10
2009,04,06,10,46,12.00
2009,04,06,10,47,12.00
2009,04,06,10,48,11.90
2009,04,06,10,49,11.90
2009,04,06,10,50,11.90
2009,04,06,10,51,11.90
2009,04,06,10,52,11.90
2009,04,06,10,53,12.00
2009,04,06,10,54,12.00
2009,04,06,10,55,12.10
2009,04,06,10,56,12.20
2009,04,06,10,57,12.30
2009,04,06,10,58,12.30
2009,04,06,10,59,12.30
2009,04,06,11,00,12.40
2009,04,06,11,01,12.50
2009,04,06,11,02,12.50
2009,04,06,11,03,12.60
2009,04,06,11,04,12.70
2009,04,06,11,05,12.70
2009,04,06,11,06,12.70
2009,04,06,11,07,12.80
2009,04,06,11,08,12.80
2009,04,06,11,09,12.70
2009,04,06,11,10,12.60
2009,04,06,11,11,12.60
2009,04,06,11,12,12.50
2009,04,06,11,13,12.50
2009,04,06,11,14,12.60
2009,04,06,11,15,12.50
2009,04,06,11,16,12.40
2009,04,06,11,17,12.30
2009,04,06,11,18,12.30
2009,04,06,11,19,12.30
2009,04,06,11,20,12.30
2009,04,06,11,21,12.40
2009,04,06,11,22,12.50
2009,04,06,11,23,12.60
2009,04,06,11,24,12.70
2009,04,06,11,25,12.70
2009,04,06,11,26,12.80
2009,04,06,11,27,12.90
2009,04,06,11,28,12.90
2009,04,06,11,29,13.00
2009,04,06,11,30,13.10
2009,04,06,11,31,13.10
2009,04,06,11,32,13.10
2009,04,06,11,33,13.20
2009,04,06,11,34,13.20
2009,04,06,11,35,13.20
2009,04,06,11,36,13.30
2009,04,06,11,37,13.20
2009,04,06,11,38,13.20
2009,04,06,11,39,13.20
2009,04,06,11,40,13.30
2009,04,06,11,41,13.40
2009,04,06,11,42,13.50
2009,04,06,11,43,13.70
2009,04,06,11,44,13.80
2009,04,06,11,45,13.80
2009,04,06,11,46,13.80
2009,04,06,11,47,13.80
2009,04,06,11,48,13.80
2009,04,06,11,49,13.80
2009,04,06,11,50,13.80
2009,04,06,11,51,13.80
2009,04,06,11,52,13.70
2009,04,06,11,53,13.70
2009,04,06,11,54,13.70
2009,04,06,11,55,13.60
2009,04,06,11,56,13.50
2009,04,06,11,57,13.40
2009,04,06,11,58,13.50
2009,04,06,11,59,13.50
2009,04,06,12,00,13.50
2009,04,06,12,01,13.40
2009,04,06,12,02,13.40
2009,04,06,12,03,13.40
2009,04,06,12,04,13.40
2009,04,06,12,05,13.30
2009,04,06,12,06,13.20
2009,04,06,12,07,13.30
2009,04,06,12,08,13.30
2009,04,06,12,09,13.50
2009,04,06,12,10,13.60
2009,04,06,12,11,13.70
2009,04,06,12,12,13.90
2009,04,06,12,13,14.00
2009,04,06,12,14,14.20
2009,04,06,12,15,14.20
2009,04,06,12,16,14.20
2009,04,06,12,17,14.10
2009,04,06,12,18,14.00
2009,04,06,12,19,13.90
2009,04,06,12,20,13.70
2009,04,06,12,21,13.50
2009,04,06,12,22,13.40
2009,04,06,12,23,13.30
2009,04,06,12,24,13.30
2009,04,06,12,25,13.30
2009,04,06,12,26,13.30
2009,04,06,12,27,13.30
2009,04,06,12,28,13.40
2009,04,06,12,29,13.50
2009,04,06,12,30,13.60
2009,04,06,12,31,13.70
2009,04,06,12,32,13.80
2009,04,06,12,33,13.90
2009,04,06,12,34,14.00
2009,04,06,12,35,14.10
2009,04,06,12,36,14.20
2009,04,06,12,37,14.20
2009,04,06,12,38,14.30
2009,04,06,12,39,14.20
2009,04,06,12,40,14.20
2009,04,06,12,41,14.20
2009,04,06,12,42,14.20
2009,04,06,12,43,14.30
2009,04,06,12,44,14.40
2009,04,06,12,45,14.50
2009,04,06,12,46,14.50
2009,04,06,12,47,14.40
2009,04,06,12,48,14.30
2009,04,06,12,49,14.30
2009,04,06,12,50,14.20
2009,04,06,12,51,14.20
2009,04,06,12,52,14.20
2009,04,06,12,53,14.30
2009,04,06,12,54,14.40
2009,04,06,12,55,14.50
2009,04,06,12,56,14.50
2009,04,06,12,57,14.50
2009,04,06,12,58,14.60
2009,04,06,12,59,14.70
2009,04,06,13,00,14.70
2009,04,06,13,01,14.70
2009,04,06,13,02,14.70
2009,04,06,13,03,14.80
2009,04,06,13,04,15.00
2009,04,06,13,05,15.00
2009,04,06,13,06,15.00
2009,04,06,13,07,15.00
2009,04,06,13,08,15.00
2009,04,06,13,09,15.00
2009,04,06,13,10,15.00
2009,04,06,13,11,15.00
2009,04,06,13,12,15.00
2009,04,06,13,13,15.00
2009,04,06,13,14,15.00
2009,04,06,13,15,15.00
2009,04,06,13,16,15.00
2009,04,06,13,17,14.80
2009,04,06,13,18,14.80
2009,04,06,13,19,14.80
2009,04,06,13,20,14.80
2009,04,06,13,21,14.80
2009,04,06,13,22,14.90
2009,04,06,13,23,14.80
2009,04,06,13,24,14.70
2009,04,06,13,25,14.70
2009,04,06,13,26,14.70
2009,04,06,13,27,14.80
2009,04,06,13,28,14.90
2009,04,06,13,29,15.00
2009,04,06,13,30,15.00
2009,04,06,13,31,15.10
2009,04,06,13,32,15.10
2009,04,06,13,33,15.20
2009,04,06,13,34,15.30
2009,04,06,13,35,15.30
2009,04,06,13,36,15.30
2009,04,06,13,37,15.30
2009,04,06,13,38,15.30
2009,04,06,13,39,15.30
2009,04,06,13,40,15.30
2009,04,06,13,41,15.30
2009,04,06,13,42,15.30
2009,04,06,13,43,15.30
2009,04,06,13,44,15.10
2009,04,06,13,45,15.00
2009,04,06,13,46,15.00
2009,04,06,13,47,14.80
2009,04,06,13,48,14.80
2009,04,06,13,49,14.80
2009,04,06,13,50,14.90
2009,04,06,13,51,15.00
2009,04,06,13,52,15.00
2009,04,06,13,53,15.10
2009,04,06,13,54,15.30
2009,04,06,13,55,15.40
2009,04,06,13,56,15.50
2009,04,06,13,57,15.60
2009,04,06,13,58,15.60
2009,04,06,13,59,15.50
2009,04,06,14,00,15.50
2009,04,06,14,01,15.40
2009,04,06,14,02,15.40
2009,04,06,14,03,15.50
2009,04,06,14,04,15.50
2009,04,06,14,05,15.60
2009,04,06,14,06,15.60
2009,04,06,14,07,15.50
2009,04,06,14,08,15.50
2009,04,06,14,09,15.40
2009,04,06,14,10,15.40
2009,04,06,14,11,15.30
2009,04,06,14,12,15.20
2009,04,06,14,13,15.10
2009,04,06,14,14,15.00
2009,04,06,14,15,15.00
2009,04,06,14,16,15.00
2009,04,06,14,17,15.00
2009,04,06,14,18,15.00
2009,04,06,14,19,15.00
2009,04,06,14,20,14.90
2009,04,06,14,21,14.80
2009,04,06,14,22,14.90
2009,04,06,14,23,14.90
2009,04,06,14,24,15.00
2009,04,06,14,25,15.00
2009,04,06,14,26,15.00
2009,04,06,14,27,15.00
2009,04,06,14,28,15.10
2009,04,06,14,29,15.20
2009,04,06,14,30,15.30
2009,04,06,14,31,15.30
2009,04,06,14,32,15.40
2009,04,06,14,33,15.40
2009,04,06,14,34,15.30
2009,04,06,14,35,15.30
2009,04,06,14,36,15.40
2009,04,06,14,37,15.50
2009,04,06,14,38,15.60
2009,04,06,14,39,15.70
2009,04,06,14,40,15.80
2009,04,06,14,41,15.80
2009,04,06,14,42,15.80
2009,04,06,14,43,15.80
2009,04,06,14,44,15.80
2009,04,06,14,45,15.70
2009,04,06,14,46,15.60
2009,04,06,14,47,15.70
2009,04,06,14,48,15.70
2009,04,06,14,49,15.80
2009,04,06,14,50,15.80
2009,04,06,14,51,15.90
2009,04,06,14,52,16.00
2009,04,06,14,53,16.10
2009,04,06,14,54,16.10
2009,04,06,14,55,16.20
2009,04,06,14,56,16.20
2009,04,06,14,57,16.30
2009,04,06,14,58,16.40
2009,04,06,14,59,16.50
2009,04,06,15,00,16.50
2009,04,06,15,01,16.50
2009,04,06,15,02,16.50
2009,04,06,15,03,16.40
2009,04,06,15,04,16.40
2009,04,06,15,05,16.40
2009,04,06,15,06,16.40
2009,04,06,15,07,16.40
2009,04,06,15,08,16.40
2009,04,06,15,09,16.40
2009,04,06,15,10,16.40
2009,04,06,15,11,16.40
2009,04,06,15,12,16.40
2009,04,06,15,13,16.50
2009,04,06,15,14,16.50
2009,04,06,15,15,16.50
2009,04,06,15,16,16.60
2009,04,06,15,17,16.60
2009,04,06,15,18,16.50
2009,04,06,15,19,16.50
2009,04,06,15,20,16.50
2009,04,06,15,21,16.50
2009,04,06,15,22,16.50
2009,04,06,15,23,16.40
2009,04,06,15,24,16.40
2009,04,06,15,25,16.30
2009,04,06,15,26,16.20
2009,04,06,15,27,16.10
2009,04,06,15,28,15.90
2009,04,06,15,29,15.80
2009,04,06,15,30,15.80
2009,04,06,15,31,15.90
2009,04,06,15,32,16.00
2009,04,06,15,33,16.10
2009,04,06,15,34,16.10
2009,04,06,15,35,16.20
2009,04,06,15,36,16.20
2009,04,06,15,37,16.20
2009,04,06,15,38,16.20
2009,04,06,15,39,16.30
2009,04,06,15,40,16.30
2009,04,06,15,41,16.30
2009,04,06,15,42,16.30
2009,04,06,15,43,16.30
2009,04,06,15,44,16.30
2009,04,06,15,45,16.30
2009,04,06,15,46,16.30
2009,04,06,15,47,16.20
2009,04,06,15,48,16.20
2009,04,06,15,49,16.20
2009,04,06,15,50,16.20
2009,04,06,15,51,16.20
2009,04,06,15,52,16.20
2009,04,06,15,53,16.20
2009,04,06,15,54,16.20
2009,04,06,15,55,16.20
2009,04,06,15,56,16.10
2009,04,06,15,57,16.00
2009,04,06,15,58,16.00
2009,04,06,15,59,15.90
2009,04,06,16,00,16.00
2009,04,06,16,01,16.00
2009,04,06,16,02,16.10
2009,04,06,16,03,16.10
2009,04,06,16,04,16.10
2009,04,06,16,05,16.10
2009,04,06,16,06,16.20
2009,04,06,16,07,16.20
2009,04,06,16,08,16.30
2009,04,06,16,09,16.40
2009,04,06,16,10,16.40
2009,04,06,16,11,16.50
2009,04,06,16,12,16.50
2009,04,06,16,13,16.60
2009,04,06,16,14,16.50
2009,04,06,16,15,16.50
2009,04,06,16,16,16.40
2009,04,06,16,17,16.40
2009,04,06,16,18,16.30
2009,04,06,16,19,16.30
2009,04,06,16,20,16.30
2009,04,06,16,21,16.20
2009,04,06,16,22,16.20
2009,04,06,16,23,16.10
2009,04,06,16,24,16.10
2009,04,06,16,25,16.20
2009,04,06,16,26,16.20
2009,04,06,16,27,16.20
2009,04,06,16,28,16.30
2009,04,06,16,29,16.30
2009,04,06,16,30,16.30
2009,04,06,16,31,16.30
2009,04,06,16,32,16.30
2009,04,06,16,33,16.20
2009,04,06,16,34,16.20
2009,04,06,16,35,16.20
2009,04,06,16,36,16.20
2009,04,06,16,37,16.10
2009,04,06,16,38,16.20
2009,04,06,16,39,16.20
2009,04,06,16,40,16.20
2009,04,06,16,41,16.20
2009,04,06,16,42,16.30
2009,04,06,16,43,16.30
2009,04,06,16,44,16.40
2009,04,06,16,45,16.40
2009,04,06,16,46,16.50
2009,04,06,16,47,16.60
2009,04,06,16,48,16.60
2009,04,06,16,49,16.70
2009,04,06,16,50,16.70
2009,04,06,16,51,16.70
2009,04,06,16,52,16.70
2009,04,06,16,53,16.70
2009,04,06,16,54,16.70
2009,04,06,16,55,16.80
2009,04,06,16,56,16.80
2009,04,06,16,57,16.80
2009,04,06,16,58,16.90
2009,04,06,16,59,16.90
2009,04,06,17,00,16.80
2009,04,06,17,01,16.80
2009,04,06,17,02,16.80
2009,04,06,17,03,16.70
2009,04,06,17,04,16.70
2009,04,06,17,05,16.70
2009,04,06,17,06,16.60
2009,04,06,17,07,16.60
2009,04,06,17,08,16.60
2009,04,06,17,09,16.50
2009,04,06,17,10,16.50
2009,04,06,17,11,16.50
2009,04,06,17,12,16.50
2009,04,06,17,13,16.50
2009,04,06,17,14,16.50
2009,04,06,17,15,16.50
2009,04,06,17,16,16.50
2009,04,06,17,17,16.50
2009,04,06,17,18,16.50
2009,04,06,17,19,16.50
2009,04,06,17,20,16.50
2009,04,06,17,21,16.50
2009,04,06,17,22,16.50
2009,04,06,17,23,16.50
2009,04,06,17,24,16.40
2009,04,06,17,25,16.40
2009,04,06,17,26,16.40
2009,04,06,17,27,16.40
2009,04,06,17,28,16.30
2009,04,06,17,29,16.30
2009,04,06,17,30,16.20
2009,04,06,17,31,16.20
2009,04,06,17,32,16.20
2009,04,06,17,33,16.20
2009,04,06,17,34,16.10
2009,04,06,17,35,16.10
2009,04,06,17,36,16.10
2009,04,06,17,37,16.10
2009,04,06,17,38,16.10
2009,04,06,17,39,16.10
2009,04,06,17,40,16.10
2009,04,06,17,41,16.10
2009,04,06,17,42,16.10
2009,04,06,17,43,16.00